[[{"header":{"parameterUnit":"m.s-1","parameterCategory":1,"la1":30.2991,"la2":30.254,"lo1":-89.0895,"lo2":-89.0444,"dy":0.0017,"dx":0.0017,"nx":28,"ny":28,"refTime":"2025-08-19T09:00:00:Z","depth":0,"parameterNumber":2,"parameterNumberName":"U-component_of_WINDS"},"data":[0,0,0,0,0,0,0,0,0,0,0,0,0,0,0,0,0,0,0,0,0,0,0,0,0,0,0,0,0,0,0,0,0,0,0,0,0,0,0,0,0,0,0,0,0,0,0,0,0,0,0,0,0,0,0,0,0,0,0.5546,0.5548,0,0.5691,0.5692,0.5694,0.5741,0.5741,0.574,0.5739,0.589,0.5894,0.5899,0,0,0,0,0,0,0,0,0,0,0,0,0,0.5312,0.5316,0.5546,0.5548,0.555,0.569,0.5692,0.5694,0.5741,0.5741,0.574,0.5739,0.5888,0.5894,0.5899,0,0,0,0,0,0,0,0,0,0,0,0,0,0.5431,0.5318,0.5546,0.559,0.5596,0.569,0.5692,0.5695,0.5742,0.5741,0.574,0.5739,0.5886,0.5893,0.59,0.5961,0,0,0.5921,0.5924,0,0,0,0,0,0,0,0,0.5424,0.544,0.5582,0.5587,0.5594,0.5697,0.5665,0.5784,0.5742,0.5686,0.5739,0.5738,0.5826,0.5838,0.5867,0.5968,0.5975,0.5921,0.5926,0.5929,0.5931,0,0,0,0,0,0,0,0.5416,0.5434,0.5603,0.5584,0.5591,0.5603,0.5619,0.5688,0.576,0.5691,0.5695,0.5711,0.583,0.5861,0.5871,0.5977,0.5921,0.5927,0.5932,0.5934,0.6134,0.6135,0,0,0,0,0,0,0.54,0.5426,0.5599,0.5608,0.5505,0.5608,0.5626,0.5665,0.5759,0.5773,0.5712,0.5713,0.5849,0.5863,0.5877,0.5954,0.5929,0.5935,0.5939,0.6133,0.6134,0.6136,0,0,0,0,0,0,0.5395,0.5415,0.5593,0.5518,0.5542,0.5613,0.5656,0.5668,0.5699,0.5775,0.5788,0.573,0.5849,0.5867,0.5939,0.596,0.5938,0.5944,0.6132,0.6133,0.6135,0.611,0,0,0,0,0,0,0.5388,0.5413,0.5437,0.5518,0.5546,0.5653,0.5658,0.5672,0.5711,0.5714,0.5796,0.5809,0.585,0.5929,0.5946,0.5969,0.595,0.613,0.6132,0.6135,0.6109,0.611,0.6112,0,0,0,0,0,0.5379,0.5425,0.5438,0.5458,0.5577,0.5654,0.567,0.5715,0.5712,0.5737,0.5785,0.5806,0.5955,0.5936,0.5956,0.5981,0.6129,0.6132,0.6134,0.6109,0.611,0.6112,0,0,0,0,0,0,0.5345,0.5436,0.5452,0.5525,0.5581,0.5662,0.5695,0.5716,0.5775,0.5775,0.583,0.5848,0.5916,0.5956,0.5933,0.6045,0.6043,0.605,0.6016,0.6019,0.602,0.6009,0.5955,0,0,0,0,0,0.5345,0.54,0.5477,0.5534,0.5561,0.5623,0.5658,0.5688,0.5749,0.5774,0.5827,0.5886,0.5946,0.5985,0.6044,0.6115,0.6133,0.6142,0.6143,0.6144,0.6149,0.6188,0.6193,0.6144,0.6144,0.6144,0,0,0.5348,0.5405,0.5436,0.5528,0.5576,0.5631,0.5643,0.5701,0.5743,0.5783,0.5854,0.5895,0.5965,0.6036,0.607,0.6071,0.6166,0.6147,0.6147,0.6152,0.6192,0.6196,0.62,0.6146,0.6146,0.6146,0,0,0.538,0.5429,0.5481,0.5528,0.5598,0.5639,0.5651,0.5728,0.5757,0.5829,0.586,0.591,0.6013,0.606,0.6098,0.6146,0.6167,0.6164,0.6171,0.6209,0.6212,0.6216,0.6233,0.6238,0.6169,0.6169,0.6169,0,0.5375,0.5459,0.5505,0.5562,0.5601,0.5639,0.5692,0.5735,0.5822,0.5848,0.5848,0.5976,0.6026,0.6108,0.6119,0.6149,0.6165,0.6155,0.6208,0.6212,0.6216,0.6233,0.6239,0.6168,0.6168,0.6168,0.6168,0,0.5448,0.5506,0.5539,0.5621,0.5664,0.5719,0.5773,0.5812,0.5837,0.5878,0.595,0.601,0.6082,0.6104,0.613,0.619,0.6188,0.6197,0.6196,0.6219,0.6236,0.6242,0.6167,0.6167,0.6167,0.6168,0,0,0.5464,0.5569,0.5581,0.5617,0.5698,0.5743,0.5799,0.5868,0.59,0.5958,0.6006,0.609,0.6099,0.6141,0.6173,0.6206,0.624,0.6212,0.6214,0.6214,0.6308,0.6301,0.6307,0.6254,0.6255,0.6256,0.6302,0,0.5506,0.5607,0.565,0.5731,0.5784,0.582,0.5868,0.5922,0.5961,0.6012,0.6056,0.6114,0.6121,0.6147,0.6181,0.6228,0.6259,0.6226,0.6299,0.6301,0.6281,0.6316,0.6309,0.6349,0.6309,0.631,0.6311,0,0.557,0.5627,0.5713,0.5785,0.5809,0.5852,0.5918,0.5966,0.6028,0.6054,0.61,0.613,0.619,0.6185,0.6267,0.6243,0.6276,0.6303,0.6306,0.6315,0.6308,0.6326,0.6363,0.6369,0.6322,0.6321,0.632,0,0.5572,0.5671,0.5734,0.5765,0.5851,0.588,0.5917,0.5978,0.6017,0.6074,0.61,0.6164,0.6199,0.6248,0.6294,0.6286,0.6372,0.6371,0.6395,0.6394,0.6412,0.6411,0.6455,0.6433,0.6433,0.6433,0.6433,0,0.5615,0.5666,0.5736,0.5776,0.5834,0.5882,0.5938,0.5978,0.6032,0.6079,0.6114,0.6158,0.6217,0.6268,0.6305,0.6367,0.6383,0.6405,0.6415,0.6402,0.6399,0.6425,0.6423,0.6435,0.6434,0.6434,0.6434,0,0.5628,0.5677,0.5749,0.5824,0.5844,0.5883,0.5947,0.5987,0.6026,0.6086,0.6103,0.6165,0.6227,0.6278,0.636,0.6384,0.6449,0.646,0.6428,0.6433,0.6454,0.6451,0.6517,0.6528,0.6498,0.6498,0.6498,0,0.5652,0.5692,0.5771,0.5804,0.5841,0.5895,0.5934,0.5983,0.6022,0.6094,0.6125,0.6189,0.6243,0.6341,0.6394,0.6456,0.6468,0.6487,0.6478,0.6464,0.6468,0.6465,0.6469,0.6488,0.6488,0.6488,0.6488,0,0.569,0.5711,0.5766,0.5828,0.5873,0.5924,0.5977,0.6003,0.6061,0.6103,0.6166,0.6208,0.6291,0.6354,0.6421,0.646,0.6484,0.649,0.6499,0.6487,0.6467,0.6477,0.643,0.6489,0.6489,0.6489,0.6488,0.6488,0.5709,0.5745,0.5806,0.5865,0.5909,0.5957,0.5997,0.6041,0.6094,0.6165,0.619,0.6255,0.6315,0.6408,0.6447,0.6498,0.6501,0.6514,0.6517,0.6519,0.6517,0.6458,0.6511,0.6511,0.6511,0.6511,0.6511,0,0.5748,0.5788,0.5842,0.5913,0.5959,0.5976,0.6035,0.6072,0.6128,0.6182,0.6234,0.6306,0.6367,0.6424,0.6488,0.6518,0.653,0.6533,0.6531,0.6539,0.6512,0.6498,0.6522,0.6522,0.6522,0.6522,0.6522,0.6522,0.5773,0.5836,0.5865,0.5949,0.5989,0.6052,0.6084,0.6128,0.6171,0.625,0.63,0.6336,0.6391,0.6459,0.6515,0.6531,0.6552,0.6552,0.657,0.6543,0.6542,0.654,0.6527,0.6557,0.6557,0.6594,0.6594,0.6594]},{"header":{"parameterUnit":"m.s-1","parameterCategory":1,"la1":30.2991,"la2":30.254,"lo1":-89.0895,"lo2":-89.0444,"dy":0.0017,"dx":0.0017,"nx":28,"ny":28,"refTime":"2025-08-19T09:00:00:Z","depth":0,"parameterNumber":3,"parameterNumberName":"V-component_of_WINDS"},"data":[0,0,0,0,0,0,0,0,0,0,0,0,0,0,0,0,0,0,0,0,0,0,0,0,0,0,0,0,0,0,0,0,0,0,0,0,0,0,0,0,0,0,0,0,0,0,0,0,0,0,0,0,0,0,0,0,0,0,1.8867,1.8867,0,1.8809,1.8808,1.8808,1.88,1.8801,1.8801,1.8802,1.8738,1.8736,1.8733,0,0,0,0,0,0,0,0,0,0,0,0,0,1.8968,1.8966,1.8868,1.8867,1.8866,1.8809,1.8808,1.8807,1.88,1.8801,1.8801,1.8802,1.8739,1.8736,1.8733,0,0,0,0,0,0,0,0,0,0,0,0,0,1.8918,1.8966,1.8868,1.8856,1.8854,1.8809,1.8808,1.8807,1.88,1.8801,1.8802,1.8802,1.8739,1.8736,1.8733,1.8695,0,0,1.8723,1.8721,0,0,0,0,0,0,0,0,1.8921,1.8915,1.8858,1.8856,1.8854,1.8813,1.882,1.8769,1.88,1.882,1.8802,1.8803,1.8762,1.8757,1.8744,1.8692,1.8689,1.8722,1.872,1.8719,1.8718,0,0,0,0,0,0,0,1.8925,1.8917,1.8844,1.8857,1.8855,1.8851,1.8845,1.8811,1.8787,1.8819,1.8818,1.8811,1.8761,1.8747,1.8742,1.8688,1.8722,1.8719,1.8717,1.8716,1.8599,1.8598,0,0,0,0,0,0,1.8931,1.892,1.8846,1.8842,1.8891,1.8849,1.8842,1.8825,1.8787,1.8782,1.8811,1.8811,1.8752,1.8746,1.874,1.8691,1.8719,1.8716,1.8714,1.8601,1.8599,1.8598,0,0,0,0,0,0,1.8933,1.8924,1.8848,1.8881,1.8871,1.8846,1.8827,1.8824,1.881,1.8781,1.8777,1.8801,1.8753,1.8745,1.8706,1.8689,1.8714,1.8711,1.8602,1.86,1.8599,1.8594,0,0,0,0,0,0,1.8936,1.8925,1.8912,1.8881,1.8869,1.8817,1.8826,1.8822,1.8804,1.8804,1.8771,1.8766,1.8753,1.8711,1.8702,1.8684,1.8709,1.8603,1.8601,1.8599,1.8595,1.8592,1.859,0,0,0,0,0,1.894,1.8912,1.8911,1.8902,1.8852,1.8816,1.8809,1.8796,1.8803,1.8788,1.877,1.8767,1.8692,1.8707,1.8697,1.8678,1.8604,1.8602,1.8599,1.8597,1.8593,1.859,0,0,0,0,0,0,1.8941,1.8908,1.8906,1.8869,1.8845,1.8815,1.8796,1.8792,1.8765,1.8766,1.8749,1.8742,1.8703,1.8687,1.8704,1.8638,1.8649,1.8644,1.865,1.8646,1.8643,1.8647,1.8706,0,0,0,0,0,1.8937,1.8912,1.8884,1.8853,1.8842,1.8821,1.8805,1.8796,1.877,1.876,1.8739,1.8713,1.8683,1.8664,1.8635,1.8594,1.8584,1.8575,1.8572,1.857,1.8566,1.854,1.8535,1.859,1.859,1.859,0,0,1.8928,1.8907,1.8892,1.8853,1.8834,1.8806,1.8813,1.8783,1.8762,1.8755,1.8717,1.8701,1.867,1.8629,1.861,1.8614,1.8549,1.8567,1.8566,1.8562,1.8537,1.8532,1.8527,1.8588,1.8589,1.8589,0,0,1.8898,1.8881,1.8852,1.8833,1.8804,1.879,1.8783,1.8753,1.8742,1.8704,1.8697,1.8671,1.8621,1.8599,1.8581,1.8541,1.8537,1.8532,1.8516,1.8491,1.8487,1.8483,1.8466,1.8461,1.8529,1.8529,1.8529,0,1.889,1.885,1.8838,1.8808,1.879,1.8784,1.8753,1.8735,1.8698,1.8684,1.869,1.8626,1.8606,1.8558,1.8548,1.8535,1.8524,1.8535,1.8489,1.8485,1.8481,1.8464,1.8458,1.8528,1.8528,1.8528,1.8528,0,1.884,1.8812,1.8792,1.8757,1.8737,1.8707,1.8689,1.867,1.8663,1.8648,1.8607,1.8582,1.8547,1.8536,1.8529,1.8486,1.849,1.8493,1.8503,1.8475,1.8459,1.8453,1.8527,1.8527,1.8528,1.8528,0,0,1.8809,1.8767,1.876,1.8743,1.871,1.8687,1.8656,1.8623,1.8606,1.858,1.8552,1.8509,1.8511,1.8491,1.8481,1.846,1.8426,1.8464,1.8463,1.8456,1.8375,1.8372,1.8365,1.8424,1.8423,1.8422,1.8377,0,1.8773,1.8719,1.8706,1.8659,1.8632,1.8625,1.8597,1.8573,1.8558,1.8531,1.8514,1.8483,1.8489,1.8477,1.8455,1.8435,1.8409,1.8438,1.8395,1.8394,1.8401,1.8357,1.8354,1.8313,1.8371,1.837,1.8369,0,1.8724,1.8697,1.8648,1.8617,1.8605,1.8581,1.8548,1.8523,1.8495,1.8485,1.8462,1.8454,1.8419,1.8433,1.8383,1.8403,1.8385,1.8372,1.837,1.8364,1.8378,1.8347,1.83,1.8292,1.836,1.8361,1.8361,0,1.8703,1.8655,1.8618,1.8604,1.8568,1.8551,1.8535,1.8507,1.8488,1.8459,1.8445,1.8413,1.8394,1.8368,1.8351,1.8362,1.8302,1.8314,1.829,1.8291,1.8276,1.8277,1.8222,1.8268,1.8268,1.8269,1.8269,0,1.8662,1.8632,1.8608,1.8585,1.855,1.8535,1.85,1.8483,1.8459,1.8431,1.8424,1.8398,1.8377,1.8348,1.8334,1.8293,1.8286,1.8275,1.8271,1.8274,1.8275,1.8261,1.8262,1.8267,1.8267,1.8268,1.8268,0,1.8632,1.8616,1.8575,1.8544,1.8535,1.851,1.8483,1.8459,1.8444,1.8409,1.84,1.8375,1.834,1.8321,1.8276,1.8267,1.8221,1.822,1.823,1.8228,1.8205,1.8206,1.8137,1.8126,1.8181,1.8181,1.8181,0,1.8607,1.8583,1.8549,1.8531,1.8515,1.8485,1.8465,1.8449,1.8428,1.8393,1.8373,1.8338,1.8308,1.8252,1.8229,1.8194,1.819,1.8169,1.8185,1.8188,1.8187,1.8188,1.8184,1.8165,1.8164,1.8164,1.8164,0,1.8562,1.8555,1.8527,1.8495,1.8472,1.8446,1.842,1.8405,1.8385,1.8361,1.8325,1.8303,1.8257,1.8221,1.8184,1.8166,1.816,1.8159,1.8151,1.8153,1.8159,1.8153,1.822,1.816,1.8161,1.8161,1.8161,1.8161,1.8532,1.851,1.8482,1.845,1.843,1.8405,1.8381,1.8363,1.8334,1.8296,1.8288,1.825,1.822,1.817,1.8151,1.8119,1.8123,1.8112,1.8109,1.8106,1.8104,1.8166,1.8112,1.8112,1.8112,1.8113,1.8113,0,1.8485,1.8467,1.8438,1.8403,1.8377,1.8376,1.8347,1.8325,1.8292,1.8265,1.8237,1.8194,1.8159,1.8133,1.8096,1.8076,1.8072,1.8066,1.8066,1.8062,1.8104,1.8113,1.807,1.807,1.807,1.807,1.807,1.807,1.8458,1.8419,1.8408,1.8358,1.834,1.8303,1.8286,1.8263,1.8241,1.8195,1.8166,1.815,1.8122,1.8083,1.805,1.8043,1.8029,1.8023,1.8015,1.8055,1.8059,1.8063,1.8072,1.8021,1.8021,1.7975,1.7975,1.7975]}]]